Chicago, IL

6:44 PM CDT on June 20, 2018 (GMT -0500)
Chicago-O'Hare International

Weather History for KORD - May, 2014

Change the Weather History Date:

Saturday, May 24, 2014

  Actual Average Record
Temperature  
Mean Temperature 61 °F 62 °F  
Max Temperature 74 °F 73 °F 93 °F (1950)
Min Temperature 47 °F 51 °F 34 °F (1992)
Degree Days  
Heating Degree Days 4 5  
Month to date heating degree days 194 193  
Since 1 July heating degree days 7122 6260  
Cooling Degree Days 0 2  
Month to date cooling degree days 35 28  
Year to date cooling degree days 36 38  
Growing Degree Days 10 (Base 50)    
Moisture  
Dew Point 42 °F    
Average Humidity 53    
Maximum Humidity 71    
Minimum Humidity 35    
Precipitation  
Precipitation 0.00 in 0.11 in 1.62 in (1927)
Month to date precipitation 4.74 2.85  
Year to date precipitation 14.59 12.25  
Snow  
Snow 0.00 in 0.00 in T in (1925)
Month to date snowfall 0.0 0.0  
Since 1 July snowfall 82.0 36.3  
Snow Depth 0.00 in    
Sea Level Pressure  
Sea Level Pressure 30.19 in    
Wind  
Wind Speed 5 mph (NE)    
Max Wind Speed 12 mph    
Max Gust Speed 17 mph    
Visibility 10 miles    
Events      
T = Trace of Precipitation, MM = Missing Value Source: NWS Daily Summary

Daily Weather History Graph

Daily Weather History Graph

Search for Another Location

Airport or City:

Astronomy

May. 24, 2014 Rise Set
Actual Time 5:23 AM CDT 8:14 PM CDT
Civil Twilight 4:50 AM CDT 8:46 PM CDT
Nautical Twilight 4:09 AM CDT 9:28 PM CDT
Astronomical Twilight 3:21 AM CDT 10:16 PM CDT
Moon 2:56 AM CDT (5/24) 4:07 PM CDT (5/24)
Length of Visible Light 15h 56m
Length of Day
14h 50m
Waning Crescent, 18% of the Moon is Illuminated
May 24
Waning Crescent
May 28
New
Jun 5
First Quarter
Jun 12
Full
Jun 19
Last Quarter

Hourly Weather History & Observations

Time (CDT) Temp. Dew Point Humidity Pressure Visibility Wind Dir Wind Speed Gust Speed Precip Events Conditions
12:51 AM 51.8 °F 41.0 °F 67% 30.20 in 10.0 mi Calm Calm - N/A   Clear
1:51 AM 50.0 °F 41.0 °F 71% 30.19 in 10.0 mi West 4.6 mph - N/A   Clear
2:51 AM 51.1 °F 39.9 °F 66% 30.19 in 10.0 mi NNW 4.6 mph - N/A   Clear
3:51 AM 50.0 °F 39.9 °F 68% 30.19 in 10.0 mi North 5.8 mph - N/A   Partly Cloudy
4:51 AM 50.0 °F 39.9 °F 68% 30.20 in 10.0 mi North 5.8 mph - N/A   Partly Cloudy
5:51 AM 50.0 °F 39.9 °F 68% 30.21 in 10.0 mi NNE 3.5 mph - N/A   Scattered Clouds
6:51 AM 54.0 °F 41.0 °F 62% 30.22 in 10.0 mi North 4.6 mph - N/A   Scattered Clouds
7:51 AM 57.9 °F 42.1 °F 56% 30.24 in 10.0 mi NE 5.8 mph - N/A   Scattered Clouds
8:51 AM 62.1 °F 43.0 °F 50% 30.25 in 10.0 mi NE 4.6 mph - N/A   Scattered Clouds
9:51 AM 64.0 °F 43.0 °F 46% 30.23 in 10.0 mi East 5.8 mph - N/A   Mostly Cloudy
10:51 AM 66.9 °F 44.1 °F 44% 30.22 in 10.0 mi Variable 3.5 mph - N/A   Mostly Cloudy
11:51 AM 69.1 °F 44.1 °F 40% 30.22 in 10.0 mi Calm Calm - N/A   Mostly Cloudy
12:51 PM 71.1 °F 44.1 °F 38% 30.20 in 10.0 mi Calm Calm - N/A   Mostly Cloudy
1:51 PM 72.0 °F 45.0 °F 38% 30.18 in 10.0 mi ESE 6.9 mph - N/A   Mostly Cloudy
2:51 PM 72.0 °F 44.1 °F 37% 30.17 in 10.0 mi ENE 8.1 mph - N/A   Mostly Cloudy
3:51 PM 72.0 °F 44.1 °F 37% 30.16 in 10.0 mi ENE 6.9 mph - N/A   Mostly Cloudy
5:51 PM 69.1 °F 43.0 °F 39% 30.15 in 10.0 mi ENE 8.1 mph - N/A   Mostly Cloudy
6:51 PM 66.9 °F 43.0 °F 42% 30.13 in 10.0 mi ENE 9.2 mph - N/A   Mostly Cloudy
7:51 PM 64.0 °F 43.0 °F 46% 30.14 in 10.0 mi ENE 6.9 mph - N/A   Mostly Cloudy
8:51 PM 63.0 °F 42.1 °F 46% 30.14 in 10.0 mi East 6.9 mph - N/A   Mostly Cloudy
9:51 PM 60.1 °F 39.9 °F 47% 30.15 in 10.0 mi East 6.9 mph - N/A   Mostly Cloudy
10:51 PM 57.9 °F 41.0 °F 53% 30.15 in 10.0 mi East 4.6 mph - N/A   Mostly Cloudy
11:51 PM 57.2 °F 39.2 °F 51% 30.15 in 10.0 mi East 3.5 mph - N/A   Mostly Cloudy